Regional Weather Roundup
Issued by NWS

Home | Current Version | Previous Version | Graphics & Text | Print | Product List | Glossary On
Versions: 1 2 3 4 5 6 7 8 9 10 11 12 13 14 15 16 17 18 19 20 21 22 23 24 25 26 27 28 29 30 31 32 33 34 35 36 37 38 39 40 41 42 43 44 45 46 47 48 49 50
000
ASUS43 KLMK 062302
RWRKY
KENTUCKY REGIONAL WEATHER ROUNDUP
NATIONAL WEATHER SERVICE LOUISVILLE KY
700 PM EDT WED MAY 06 2015

NOTE "FAIR" INDICATES FEW OR NO CLOUDS BELOW 12,000 FEET
WITH NO SIGNIFICANT WEATHER AND/OR OBSTRUCTIONS TO VISIBILITY.

KYZ001>023-026-027-061>063-070>075-070000-
WESTERN AND SOUTH CENTRAL KENTUCKY

CITY           SKY/WX    TMP DP  RH WIND       PRES   REMARKS
PADUCAH        SUNNY     81  54  39 SE8       30.05F
HENDERSON      PTSUNNY   82  54  36 SE7       30.05F
OWENSBORO      MOSUNNY   84  56  38 SE9       30.07F
HOPKINSVILLE   NOT AVBL
BOWLING GREEN  SUNNY     83  55  38 SE3       30.08F
GLASGOW        NOT AVBL
$$

KYZ024-025-028>034-038-045-046-053-070000-
NORTH CENTRAL KENTUCKY

CITY           SKY/WX    TMP DP  RH WIND       PRES   REMARKS
LOUISVILLE/SDF MOSUNNY   85  54  34 E5        30.08F
LOUISVILLE/LOU SUNNY     84  55  36 CALM      30.09F
FORT KNOX      NOT AVBL
$$

KYZ035>037-039>044-047>052-055>060-089>105-070000-
NORTHEAST KENTUCKY

CITY           SKY/WX    TMP DP  RH WIND       PRES   REMARKS
LEXINGTON      SUNNY     82  56  40 N8        30.11F
COVINGTON      MOSUNNY   85  55  35 NW5       30.10F
FRANKFORT      SUNNY     82  54  37 E6        30.09F
$$

KYZ054-064>069-076>088-106>120-070000-
SOUTHEAST KENTUCKY

CITY           SKY/WX    TMP DP  RH WIND       PRES   REMARKS
JACKSON        SUNNY     83  52  34 CALM      30.12F
LONDON         MOSUNNY   77  54  44 CALM      30.11F
SOMERSET       NOT AVBL
MIDDLESBORO    NOT AVBL
MONTICELLO     PTCLDY    85  57  38 N9        30.11F
$$



USA.gov is the U.S. government's official web portal to all federal, state and local government web resources and services.